Fort Knox, KY

10:25 AM EST on February 25, 2017 (GMT -0500)
Godman Army Air Field

Weather History for KFTK - January, 2013

Change the Weather History Date:

Thursday, January 31, 2013

  Actual Average Record
Temperature  
Mean Temperature 26 °F -  
Max Temperature 35 °F 41 °F 66 °F (2002)
Min Temperature 17 °F 25 °F -4 °F (2004)
Degree Days  
Heating Degree Days 38    
Moisture  
Dew Point 20 °F    
Average Humidity 72    
Maximum Humidity 93    
Minimum Humidity 56    
Precipitation  
Precipitation 0.01 in - - ()
Sea Level Pressure  
Sea Level Pressure 29.95 in    
Wind  
Wind Speed 16 mph (West)    
Max Wind Speed 25 mph    
Max Gust Speed 38 mph    
Visibility 8 miles    
Events Snow    
Averages and records for this station are not official NWS values.
T = Trace of Precipitation, MM = Missing Value Source: NWS Daily Summary

Daily Weather History Graph

Daily Weather History Graph

Search for Another Location

Airport or City:

Trip Planner

Search our weather history database for the weather conditions in past years. The results will help you decide how hot, cold, wet, or windy it might be!

Date:

Astronomy

Jan. 31, 2013 Rise Set
Actual Time 7:48 AM EST 6:06 PM EST
Civil Twilight 7:21 AM EST 6:34 PM EST
Nautical Twilight 6:49 AM EST 7:05 PM EST
Astronomical Twilight 6:18 AM EST 7:36 PM EST
Moon 11:01 PM EST (1/31) 9:53 AM EST (1/31)
Length of Visible Light 11h 13m
Length of Day
10h 17m
Waning Gibbous, 80% of the Moon is Illuminated
Jan 31
Waning Gibbous
Feb 3
Last Quarter
Feb 10
New
Feb 17
First Quarter
Feb 25
Full

Hourly Weather History & Observations

Time (EST) Temp. Windchill Dew Point Humidity Pressure Visibility Wind Dir Wind Speed Gust Speed Precip Events Conditions
12:15 AM 32.0 °F 20.1 °F 24.8 °F 75% 29.75 in 10.0 mi West 19.6 mph 31.1 mph N/A   Overcast
12:25 AM 32.0 °F 19.8 °F 24.8 °F 75% 29.76 in 10.0 mi West 20.7 mph 27.6 mph N/A   Overcast
12:40 AM 32.0 °F 20.5 °F 24.8 °F 75% 29.77 in 10.0 mi West 18.4 mph 29.9 mph N/A   Overcast
12:55 AM 31.3 °F 18.5 °F 23.4 °F 72% 29.78 in 10.0 mi West 21.9 mph 33.4 mph 0.00 in   Overcast
12:57 AM 32.0 °F 18.6 °F 23.0 °F 69% 29.78 in 10.0 mi West 25.3 mph 33.4 mph N/A   Overcast
1:55 AM 30.0 °F 18.7 °F 20.5 °F 68% 29.82 in 10.0 mi West 16.1 mph 28.8 mph 0.00 in   Overcast
1:58 AM 30.2 °F 19.3 °F 21.2 °F 69% 29.83 in 10.0 mi West 15.0 mph 27.6 mph N/A   Overcast
1:59 AM 30.2 °F 18.5 °F 19.4 °F 64% 29.83 in 10.0 mi West 17.3 mph 27.6 mph N/A   Overcast
2:51 AM 28.4 °F 15.4 °F 17.6 °F 64% 29.85 in 10.0 mi West 19.6 mph 28.8 mph N/A Snow Light Snow
2:55 AM 29.1 °F 17.5 °F 18.0 °F 63% 29.86 in 10.0 mi West 16.1 mph 26.5 mph 0.00 in Snow Light Snow
3:03 AM 28.4 °F 15.1 °F 19.4 °F 69% 29.86 in 10.0 mi WSW 20.7 mph 29.9 mph N/A   Overcast
3:41 AM 28.4 °F 16.6 °F 19.4 °F 69% 29.86 in 10.0 mi West 16.1 mph 21.9 mph N/A Snow Light Snow
3:52 AM 28.4 °F 17.0 °F 19.4 °F 69% 29.86 in 10.0 mi West 15.0 mph 19.6 mph N/A Snow Light Snow
3:55 AM 29.1 °F 17.5 °F 19.6 °F 68% 29.87 in 10.0 mi West 16.1 mph 21.9 mph 0.00 in Snow Light Snow
4:25 AM 28.4 °F 15.4 °F 17.6 °F 64% 29.86 in 10.0 mi West 19.6 mph 25.3 mph N/A   Overcast
4:55 AM 28.9 °F 19.2 °F 17.8 °F 63% 29.87 in 10.0 mi West 11.5 mph 20.7 mph 0.00 in   Overcast
5:01 AM 28.4 °F 17.0 °F 17.6 °F 64% 29.88 in 10.0 mi West 15.0 mph 21.9 mph N/A Snow Light Snow
5:55 AM 27.9 °F 16.3 °F 19.0 °F 69% 29.89 in 10.0 mi WSW 15.0 mph 21.9 mph 0.00 in Snow Light Snow
6:18 AM 28.4 °F 18.0 °F 19.4 °F 69% 29.91 in 10.0 mi West 12.7 mph - N/A   Overcast
6:33 AM 28.4 °F 17.5 °F 19.4 °F 69% 29.91 in 10.0 mi West 13.8 mph 19.6 mph N/A Snow Light Snow
6:55 AM 27.9 °F 17.3 °F 19.4 °F 71% 29.92 in 7.0 mi West 12.7 mph - 0.00 in Snow Light Snow
7:55 AM 27.3 °F 16.1 °F 18.5 °F 69% 29.96 in 7.0 mi West 13.8 mph - 0.00 in Snow Light Snow
8:50 AM 26.6 °F 15.2 °F 19.4 °F 74% 29.96 in 2.0 mi WSW 13.8 mph - N/A Snow Light Snow
8:55 AM 27.3 °F 15.6 °F 19.0 °F 71% 29.99 in 1.5 mi WSW 15.0 mph 20.7 mph 0.00 in Snow Light Snow
8:59 AM 26.6 °F 17.5 °F 19.4 °F 74% 29.97 in 1.0 mi WSW 9.2 mph 20.7 mph N/A Snow Light Snow
9:13 AM 26.6 °F 16.2 °F 23.0 °F 86% 29.97 in 5.0 mi WSW 11.5 mph - N/A Snow Light Snow
9:34 AM 26.6 °F 18.2 °F 21.2 °F 80% 29.97 in 2.5 mi SW 8.1 mph - N/A Snow Light Snow
9:39 AM 26.6 °F 17.5 °F 21.2 °F 80% 29.98 in 1.8 mi WSW 9.2 mph - N/A Snow Light Snow
9:55 AM 27.1 °F 17.5 °F 22.5 °F 83% 30.01 in 2.5 mi WSW 10.4 mph - 0.00 in Snow Light Snow
10:12 AM 26.6 °F 16.8 °F 23.0 °F 86% 29.98 in 1.8 mi SW 10.4 mph - N/A Snow Light Snow
10:51 AM 26.6 °F 17.5 °F 23.0 °F 86% 29.99 in 2.0 mi WSW 9.2 mph - N/A Snow Light Snow
10:55 AM 27.5 °F 17.4 °F 23.9 °F 86% 30.03 in 2.0 mi SW 11.5 mph - 0.00 in Snow Light Snow
11:13 AM 28.4 °F 20.4 °F 24.8 °F 86% 30.00 in 5.0 mi SW 8.1 mph - N/A Snow Light Snow
11:55 AM 30.2 °F 20.8 °F 22.6 °F 73% 30.02 in 10.0 mi SW 11.5 mph - 0.00 in Snow Light Snow
12:13 PM 32.0 °F 20.8 °F 21.2 °F 64% 29.99 in 10.0 mi WSW 17.3 mph 26.5 mph N/A   Mostly Cloudy
12:51 PM 32.0 °F 20.5 °F 19.4 °F 60% 29.99 in 10.0 mi WSW 18.4 mph 25.3 mph N/A Snow Light Snow
12:55 PM 31.8 °F 21.4 °F 20.3 °F 62% 30.01 in 10.0 mi WSW 15.0 mph 25.3 mph 0.00 in Snow Light Snow
1:07 PM 32.0 °F 21.2 °F 21.2 °F 64% 29.97 in 10.0 mi WSW 16.1 mph 31.1 mph N/A   Mostly Cloudy
1:55 PM 32.7 °F 20.7 °F 20.1 °F 60% 29.99 in 10.0 mi WSW 20.7 mph 31.1 mph N/A   Mostly Cloudy
2:55 PM 34.7 °F 25.1 °F 20.5 °F 56% 29.99 in 10.0 mi WSW 15.0 mph 25.3 mph N/A   Scattered Clouds
3:55 PM 34.5 °F 23.8 °F 20.1 °F 56% 29.97 in 10.0 mi SW 18.4 mph 23.0 mph N/A   Mostly Cloudy
4:55 PM 35.4 °F 27.3 °F 21.0 °F 56% 29.98 in 10.0 mi West 11.5 mph - N/A   Overcast
5:55 PM 34.7 °F 26.4 °F 21.4 °F 58% 29.98 in 10.0 mi WSW 11.5 mph - N/A   Mostly Cloudy
6:55 PM 34.2 °F 27.5 °F 22.5 °F 62% 29.99 in 10.0 mi WSW 8.1 mph - N/A   Mostly Cloudy
7:01 PM 33.8 °F 25.3 °F 23.0 °F 65% 29.96 in 7.0 mi WSW 11.5 mph - N/A Snow Light Snow
7:55 PM 31.6 °F 24.4 °F 27.9 °F 86% 29.99 in 3.0 mi West 8.1 mph - 0.00 in Snow Light Snow
8:55 PM 31.1 °F 22.4 °F 29.3 °F 93% 29.98 in 3.0 mi WSW 10.4 mph - 0.00 in Snow Light Snow
9:25 PM 32.0 °F 21.2 °F 30.2 °F 93% 29.96 in 0.2 mi West 16.1 mph 23.0 mph N/A Snow Snow
9:38 PM 28.4 °F 14.7 °F 24.8 °F 86% 30.00 in 2.0 mi WNW 21.9 mph 38.0 mph N/A Snow Light Snow
9:50 PM 24.8 °F 10.7 °F 21.2 °F 86% 30.02 in 3.0 mi WNW 19.6 mph 34.5 mph N/A Snow Light Snow
9:55 PM 25.0 °F 11.3 °F 20.7 °F 84% 30.06 in 5.0 mi NW 18.4 mph 34.5 mph 0.01 in Snow Light Snow
10:55 PM 22.1 °F 8.9 °F 17.1 °F 81% 30.11 in 4.0 mi WNW 15.0 mph 23.0 mph 0.00 in Snow Light Snow
11:20 PM 21.2 °F 6.8 °F 14.0 °F 74% 30.12 in 10.0 mi WNW 17.3 mph 29.9 mph N/A   Overcast
11:25 PM 21.2 °F 6.8 °F 12.2 °F 68% 30.13 in 10.0 mi WNW 17.3 mph 28.8 mph N/A Snow Light Snow
11:40 PM 19.4 °F 6.0 °F 12.2 °F 74% 30.14 in 10.0 mi WNW 13.8 mph 26.5 mph N/A   Mostly Cloudy
11:55 PM 18.7 °F 2.7 °F 9.1 °F 66% 30.16 in 10.0 mi WNW 19.6 mph 27.6 mph 0.00 in   Mostly Cloudy
11:59 PM 17.6 °F 1.3 °F 8.6 °F 68% 30.17 in 10.0 mi WNW 19.6 mph 38.0 mph N/A   Scattered Clouds